Theta_e
287 286 286 286 286 286 286 285 285 284 283 283 283 284 284 284 282 278 275 274 274 275 275 277 280 283 288 290 295 295 295 299 300 298 299 302 308 321 323 323 322 320 322
287 286 286 286 286 286 285 284 283 282 282 282 283 284 283 283 280 277 274 273 273 273 274 275 277 280 286 290 294 294 294 296 297 297 300 302 306 319 324 324 322 321 319
286 286 286 286 285 285 284 283 282 281 282 282 283 283 283 280 277 274 271 272 272 273 273 275 277 279 284 289 293 294 294 295 297 297 299 300 304 319 320 322 322 321 320
286 286 285 285 284 284 283 282 281 281 282 283 282 282 280 277 273 271 270 271 272 272 273 274 276 278 283 289 291 293 293 294 296 298 300 301 302 316 320 320 320 320 318
286 285 285 284 283 283 281 280 281 281 282 281 281 279 277 274 272 269 270 271 272 273 274 275 276 278 281 287 290 292 293 293 294 295 297 302 305 316 319 318 319 317 316
285 285 284 283 282 281 280 280 280 281 281 280 280 276 273 270 268 270 272 272 273 274 275 275 276 278 280 286 290 292 292 293 293 294 295 301 305 318 318 318 317 315 313
285 284 283 282 281 280 279 279 280 281 281 279 276 274 270 270 268 270 272 273 274 275 275 275 276 277 280 283 287 291 292 293 293 293 294 299 313 317 316 315 314 313 312
284 283 282 281 280 279 278 279 280 280 278 277 275 271 268 269 268 270 272 274 275 276 277 276 276 277 279 282 285 289 290 291 292 293 295 298 300 317 318 317 315 313 312
283 283 281 280 278 277 278 278 279 279 278 276 272 271 270 269 268 270 273 275 276 278 279 279 277 277 279 280 284 286 288 290 293 294 297 298 303 315 317 315 313 312 312
283 282 280 278 277 276 277 278 277 277 277 274 273 270 269 268 269 271 272 275 277 277 278 279 279 279 279 282 285 286 287 292 293 293 297 305 311 316 315 315 314 312 311
283 281 279 277 276 276 276 276 277 277 276 273 271 269 267 268 269 269 272 274 274 275 277 279 280 281 280 282 285 286 288 289 291 291 295 306 312 314 314 314 316 314 311
282 280 278 275 275 275 276 275 276 276 275 272 269 268 267 268 268 270 271 272 273 275 276 278 280 281 282 284 286 287 289 290 291 292 295 304 310 310 313 314 315 313 315
280 278 276 275 274 274 275 275 275 274 272 269 268 267 267 268 268 269 270 273 274 275 276 277 279 280 283 284 287 289 291 291 293 294 296 303 309 310 311 314 315 312 311
279 277 275 274 273 273 274 274 274 272 269 268 268 267 267 269 268 270 271 271 272 273 275 278 281 283 286 286 287 290 292 292 293 294 297 304 308 308 309 314 310 311 309
278 276 274 272 271 272 273 273 273 272 267 268 267 267 267 268 269 271 271 271 271 274 275 277 280 284 287 288 289 290 291 293 294 295 299 304 307 307 307 308 308 309 307
276 274 272 271 270 270 271 273 273 273 272 268 266 267 268 268 269 269 269 269 270 270 276 277 280 282 285 289 292 291 292 295 295 297 301 304 307 307 308 308 308 309 307
275 273 271 270 270 270 270 271 272 274 273 272 271 266 267 266 267 267 267 267 267 273 274 276 278 281 285 289 291 292 294 296 297 299 302 304 308 309 306 306 306 306 306
273 272 270 269 269 269 269 269 271 272 272 272 271 269 267 267 265 265 265 270 272 272 270 270 273 276 280 284 289 293 296 295 298 299 302 304 306 306 305 305 305 305 305
272 270 269 268 268 268 269 269 269 271 271 270 271 272 270 271 269 268 267 266 265 266 268 268 270 272 275 279 284 291 296 297 298 300 302 303 305 306 305 305 305 305 305
271 270 268 268 268 268 269 269 269 269 270 270 269 267 267 271 270 269 267 266 266 266 266 267 269 270 272 275 280 287 294 298 299 300 301 302 303 304 305 306 304 304 304
269 268 267 267 268 268 268 268 268 268 268 269 268 269 266 269 268 268 268 267 266 266 267 267 268 269 270 272 277 283 288 294 298 301 301 302 302 304 304 306 306 305 304
268 268 267 267 267 267 268 267 267 268 267 267 268 269 268 269 268 268 268 269 268 268 268 267 267 268 270 271 272 278 283 288 294 299 300 301 302 302 303 304 305 306 304
268 267 267 267 267 267 267 267 267 267 267 267 267 267 268 268 268 268 268 268 269 269 269 269 269 268 271 272 271 273 279 284 289 294 298 299 300 301 302 303 304 303 303
267 267 266 267 267 267 267 267 267 267 266 266 266 266 266 267 268 268 268 268 269 269 269 269 269 269 270 272 273 274 276 281 286 291 295 297 298 299 299 300 301 302 302
267 267 266 266 267 267 267 267 267 267 266 266 266 266 266 266 266 267 268 268 268 268 269 269 269 269 269 272 274 275 276 280 285 288 293 296 297 297 298 299 299 299 300
267 266 266 266 266 266 266 267 267 267 266 266 266 266 265 266 265 266 266 267 267 268 268 269 269 269 269 270 273 274 275 277 281 284 287 290 294 296 296 297 297 298 298
Wind_Speed
19 21 25 28 31 34 37 40 42 44 43 44 45 46 47 49 50 47 44 45 43 39 42 41 45 49 49 31 38 34 32 32 37 43 46 62 24 62 50 52 44 45 46
20 23 26 29 32 35 38 41 43 44 43 43 45 47 50 50 49 46 45 42 40 41 39 38 43 40 49 31 37 36 34 37 37 42 39 53 56 52 64 63 58 51 54
20 24 27 30 34 37 39 42 43 43 45 44 45 46 48 50 47 44 41 41 39 40 42 44 43 41 48 39 32 33 34 32 40 37 46 55 51 57 55 61 64 66 71
21 24 28 31 35 38 40 41 41 42 45 46 46 47 47 47 42 38 34 37 39 40 40 39 41 41 47 41 26 34 34 35 38 34 44 51 60 45 64 65 67 66 67
21 25 29 33 36 38 39 40 41 41 43 45 47 46 45 43 40 32 31 33 35 38 38 36 38 36 45 47 39 24 34 32 38 40 45 43 49 56 63 62 63 66 71
22 28 31 35 37 38 38 39 40 41 42 44 45 46 45 41 33 33 33 37 37 39 40 41 39 37 38 49 42 37 32 38 37 40 45 51 53 64 59 66 65 59 52
23 28 32 36 38 38 37 38 39 41 43 45 45 44 42 40 34 32 32 34 38 40 39 41 40 39 34 38 46 45 39 40 38 38 43 56 40 65 62 66 67 71 65
23 28 32 35 36 36 36 36 38 41 43 44 44 42 40 37 33 32 32 33 34 35 41 41 41 40 38 36 35 44 47 45 44 42 46 52 45 66 70 76 78 72 60
24 29 33 34 34 35 35 35 37 42 44 44 42 41 39 34 30 31 30 31 36 37 44 39 37 39 40 34 33 39 40 47 45 43 45 53 53 69 78 68 66 66 58
24 28 30 31 32 33 33 34 36 40 44 45 46 44 43 40 36 32 30 26 33 35 32 38 35 35 36 30 33 38 42 45 44 44 38 42 56 72 74 81 80 74 67
22 25 26 28 29 29 31 32 36 40 43 45 47 46 42 37 39 31 28 30 32 33 33 37 33 27 29 34 33 37 44 42 48 45 38 38 66 73 73 83 89 83 73
20 22 22 23 25 26 29 31 34 38 43 46 46 46 41 42 35 35 32 28 28 31 32 30 27 25 24 27 28 28 37 41 43 40 33 32 62 64 73 79 83 81 85
17 18 20 20 23 24 28 31 34 37 40 44 42 43 48 42 46 35 38 32 30 29 31 28 25 24 24 29 28 28 26 28 34 35 30 34 59 65 68 77 78 75 70
14 17 18 20 20 22 25 29 31 34 38 39 43 43 48 45 45 43 42 43 37 31 30 28 25 24 23 26 26 22 25 28 31 32 26 40 56 59 61 73 66 70 60
12 14 16 18 20 21 22 27 29 28 26 31 35 39 42 47 45 41 41 40 32 27 30 28 23 17 20 21 24 26 26 31 30 31 25 42 53 57 57 65 60 60 59
11 13 15 17 19 22 25 22 23 28 28 25 27 31 38 37 38 38 38 29 24 25 10 8 12 15 16 17 16 22 27 29 29 26 28 48 55 55 59 60 62 64 56
10 12 14 16 18 21 24 28 33 26 30 33 33 33 37 35 36 37 36 27 28 22 23 18 14 12 13 12 8 16 20 23 26 24 36 47 54 54 57 58 57 57 53
9 11 12 14 16 19 22 26 29 33 37 37 36 40 40 37 36 35 37 33 36 35 34 32 26 21 17 16 15 15 18 22 22 27 41 49 54 58 57 57 59 58 51
6 8 9 11 15 17 20 23 26 28 32 35 37 39 46 43 42 43 44 48 46 45 43 42 34 28 23 20 17 15 17 19 22 34 44 50 53 56 57 57 58 59 55
3 5 6 9 12 15 19 22 25 27 29 33 36 39 42 45 49 51 50 49 49 48 47 45 44 36 31 27 21 14 15 17 23 38 46 53 55 56 56 57 58 61 59
2 3 5 8 10 14 18 20 23 25 27 29 32 33 31 40 45 48 49 49 50 50 50 46 48 46 40 36 27 17 10 11 19 33 47 52 55 53 53 55 59 60 58
2 1 4 6 10 13 16 18 20 22 24 26 28 30 31 35 39 43 46 47 48 49 51 52 49 52 48 44 40 27 15 6 11 28 33 46 53 54 54 54 57 57 56
4 2 3 5 8 11 13 16 18 21 22 24 26 28 31 33 35 37 41 43 46 47 49 53 56 56 52 48 46 39 27 13 5 15 30 37 47 51 52 50 51 52 53
6 4 3 4 7 9 11 14 17 19 21 22 24 25 27 29 31 33 35 38 41 44 46 49 52 55 54 51 48 47 37 21 7 4 17 32 38 45 46 47 51 53 53
8 5 3 4 5 7 10 13 15 17 19 21 22 23 24 25 27 29 31 34 37 40 43 46 47 52 56 51 49 48 44 35 18 6 8 19 25 32 38 44 46 46 48
8 6 5 4 5 6 9 11 13 15 17 19 20 21 22 23 24 26 27 30 33 36 38 42 44 47 54 52 48 47 48 43 35 23 12 10 16 21 26 30 32 36 41
Wind_Direction
306 314 315 317 319 318 319 319 317 316 316 315 313 310 307 304 301 298 287 284 280 274 275 272 258 248 252 273 242 247 251 240 247 264 258 249 283 203 205 201 171 175 177
305 310 313 316 318 320 321 321 320 319 319 317 314 312 308 302 299 295 287 281 274 275 275 271 261 256 251 259 256 250 252 244 251 254 259 256 253 213 199 200 198 200 188
300 308 314 317 319 321 323 322 322 322 321 318 314 311 308 304 300 294 287 283 276 274 274 271 265 254 247 250 259 250 252 252 251 255 252 255 250 205 196 188 190 190 180
302 310 315 319 322 323 322 323 325 324 321 319 316 313 310 305 298 291 282 277 274 275 276 272 265 256 244 244 255 248 259 255 251 246 246 257 247 211 195 179 176 176 171
306 314 318 322 324 324 326 326 324 325 322 320 319 317 313 310 305 295 288 285 285 289 288 283 265 257 248 241 246 255 253 258 252 259 254 251 251 203 186 172 172 169 173
316 320 324 324 327 328 328 327 327 326 325 324 325 324 321 314 298 290 285 283 282 277 277 279 279 262 258 241 243 246 254 259 257 259 256 249 259 177 177 177 169 161 158
320 323 327 329 330 330 330 331 330 329 330 333 331 329 327 317 301 296 290 285 283 282 279 274 274 270 252 255 244 244 251 259 263 265 263 246 216 179 173 167 167 168 173
322 327 331 329 330 331 332 335 333 333 337 337 337 339 330 319 305 300 296 292 289 284 282 277 267 265 257 249 253 247 250 256 256 264 263 256 255 183 189 184 177 173 168
328 331 331 330 332 335 335 338 339 338 339 340 342 342 338 331 321 308 305 302 297 300 286 286 271 261 258 251 251 250 253 259 259 269 259 266 237 190 187 172 166 163 168
331 334 333 333 336 337 337 340 344 342 342 342 343 348 344 336 329 313 308 305 306 297 298 291 285 265 252 248 247 252 261 257 265 276 282 232 204 189 182 179 175 171 172
330 330 331 334 337 336 339 345 346 345 344 347 346 346 336 330 331 321 316 306 302 298 294 305 284 274 255 243 245 248 248 256 262 273 280 212 185 182 180 181 185 181 175
328 330 331 335 338 341 342 346 351 348 349 349 346 339 334 331 329 322 318 312 307 301 298 297 294 281 264 250 250 254 256 258 261 276 283 214 180 181 179 184 186 186 193
328 330 331 339 344 347 347 350 354 353 354 350 339 336 334 335 328 331 330 321 310 301 292 285 279 276 275 257 247 254 246 248 254 267 264 206 182 182 181 186 189 186 185
329 331 333 342 349 355 352 354 1 357 357 344 339 337 338 332 333 334 329 326 318 301 289 281 272 268 270 256 246 249 236 243 257 263 248 199 182 179 178 185 183 184 181
326 330 338 347 351 359 6 1 5 5 353 343 341 338 338 334 336 333 332 328 325 317 302 288 279 267 263 258 249 252 247 245 257 252 232 192 180 179 178 181 179 179 181
327 337 344 354 356 359 359 11 14 11 12 0 351 348 346 340 341 344 343 347 350 343 352 304 295 287 290 280 270 255 253 252 254 238 215 189 183 181 182 185 184 185 181
335 344 352 357 358 4 3 3 3 15 18 19 15 0 358 353 355 358 359 7 14 28 38 24 6 343 328 315 286 253 276 273 252 222 207 188 195 195 187 184 184 182 181
337 346 357 359 2 6 7 8 8 9 9 15 24 22 11 12 7 9 13 32 35 34 34 22 11 1 347 325 300 278 258 262 260 218 206 195 195 190 186 186 186 184 182
334 346 357 2 5 6 9 12 14 14 15 15 16 26 22 25 31 34 38 38 29 27 27 19 18 10 2 343 322 295 270 254 241 216 207 199 200 197 192 192 191 189 185
319 339 3 11 7 7 12 16 19 20 20 21 22 26 16 23 28 32 37 39 35 30 26 21 17 19 14 3 347 317 278 255 226 216 205 202 201 200 199 198 194 192 191
296 359 15 17 11 17 17 20 23 23 25 26 26 30 19 30 31 31 31 36 38 33 29 25 16 20 22 19 7 354 313 251 211 206 209 205 205 202 201 205 204 200 196
189 77 36 22 24 24 23 25 26 27 26 26 28 30 32 32 34 33 32 32 36 39 38 30 26 21 25 26 19 11 355 305 215 199 201 210 210 211 208 207 208 209 202
173 128 62 40 37 33 31 30 29 31 30 28 26 27 29 32 32 33 32 32 32 36 39 37 33 23 29 33 31 22 12 354 289 210 200 202 211 210 212 212 213 209 206
169 142 104 63 50 44 40 38 35 32 32 30 29 28 28 29 31 31 31 31 31 32 34 37 34 31 27 31 34 33 23 13 358 240 212 208 209 210 211 212 215 215 210
173 157 130 90 63 51 50 46 40 35 31 31 30 29 28 29 30 31 30 31 31 31 32 34 32 33 27 29 33 38 32 29 33 59 159 190 199 203 206 209 211 211 210
179 164 141 105 72 54 53 48 45 39 34 31 29 27 27 27 27 28 29 30 30 31 32 32 31 33 30 23 31 35 40 36 40 50 72 130 165 186 200 207 211 213 215